owner,sensor,date,latitude,longitude,relative_humidity,qcFlag 
DISL,ioos:station:DISL:CATA:1,2015-04-01T00:00:00Z,30.3085,-88.1395,88.9,1111122 
DISL,ioos:station:DISL:CATA:1,2015-04-01T00:30:00Z,30.3085,-88.1395,89.5,1111122 
DISL,ioos:station:DISL:CATA:1,2015-04-01T01:00:00Z,30.3085,-88.1395,89.0,1111122 
DISL,ioos:station:DISL:CATA:1,2015-04-01T01:30:00Z,30.3085,-88.1395,88.3,1111122 
DISL,ioos:station:DISL:CATA:1,2015-04-01T02:00:00Z,30.3085,-88.1395,88.4,1111122 
DISL,ioos:station:DISL:CATA:1,2015-04-01T02:30:00Z,30.3085,-88.1395,91.7,1111122 
DISL,ioos:station:DISL:CATA:1,2015-04-01T03:00:00Z,30.3085,-88.1395,92.3,1111122 
DISL,ioos:station:DISL:CATA:1,2015-04-01T03:30:00Z,30.3085,-88.1395,91.6,1111122 
DISL,ioos:station:DISL:CATA:1,2015-04-01T04:00:00Z,30.3085,-88.1395,94.1,1111122 
DISL,ioos:station:DISL:CATA:1,2015-04-01T04:30:00Z,30.3085,-88.1395,92.3,1111122 
DISL,ioos:station:DISL:CATA:1,2015-04-01T05:00:00Z,30.3085,-88.1395,93.7,1111122 
DISL,ioos:station:DISL:CATA:1,2015-04-01T05:30:00Z,30.3085,-88.1395,99.3,1111122 
DISL,ioos:station:DISL:CATA:1,2015-04-01T06:30:00Z,30.3085,-88.1395,98.4,1111122 
DISL,ioos:station:DISL:CATA:1,2015-04-01T07:00:00Z,30.3085,-88.1395,98.6,1111122 
DISL,ioos:station:DISL:CATA:1,2015-04-01T07:30:00Z,30.3085,-88.1395,100.0,1111122 
DISL,ioos:station:DISL:CATA:1,2015-04-01T08:00:00Z,30.3085,-88.1395,99.8,1111122 
DISL,ioos:station:DISL:CATA:1,2015-04-01T08:30:00Z,30.3085,-88.1395,100.0,1111122 
DISL,ioos:station:DISL:CATA:1,2015-04-01T09:00:00Z,30.3085,-88.1395,100.0,1111122 
DISL,ioos:station:DISL:CATA:1,2015-04-01T09:30:00Z,30.3085,-88.1395,100.0,1111122 
DISL,ioos:station:DISL:CATA:1,2015-04-01T12:00:00Z,30.3085,-88.1395,100.0,1111122 
DISL,ioos:station:DISL:CATA:1,2015-04-01T13:30:00Z,30.3085,-88.1395,100.0,1111122 
DISL,ioos:station:DISL:CATA:1,2015-04-01T14:00:00Z,30.3085,-88.1395,100.0,1111122 
DISL,ioos:station:DISL:CATA:1,2015-04-01T14:30:00Z,30.3085,-88.1395,100.0,1111122 
DISL,ioos:station:DISL:CATA:1,2015-04-01T15:00:00Z,30.3085,-88.1395,100.0,1111122 
DISL,ioos:station:DISL:CATA:1,2015-04-01T15:30:00Z,30.3085,-88.1395,99.3,1111122 
DISL,ioos:station:DISL:CATA:1,2015-04-01T16:00:00Z,30.3085,-88.1395,98.5,1111122 
DISL,ioos:station:DISL:CATA:1,2015-04-01T16:30:00Z,30.3085,-88.1395,92.5,1111122 
DISL,ioos:station:DISL:CATA:1,2015-04-01T17:00:00Z,30.3085,-88.1395,92.9,1111122 
DISL,ioos:station:DISL:CATA:1,2015-04-01T17:30:00Z,30.3085,-88.1395,96.2,1111122 
DISL,ioos:station:DISL:CATA:1,2015-04-01T18:00:00Z,30.3085,-88.1395,93.5,1111122 
DISL,ioos:station:DISL:CATA:1,2015-04-01T18:30:00Z,30.3085,-88.1395,92.9,1111122 
DISL,ioos:station:DISL:CATA:1,2015-04-01T19:00:00Z,30.3085,-88.1395,87.6,1111122 
DISL,ioos:station:DISL:CATA:1,2015-04-01T19:30:00Z,30.3085,-88.1395,86.2,1111122 
DISL,ioos:station:DISL:CATA:1,2015-04-01T20:00:00Z,30.3085,-88.1395,87.1,1111122 
DISL,ioos:station:DISL:CATA:1,2015-04-01T20:30:00Z,30.3085,-88.1395,80.9,1111122 
DISL,ioos:station:DISL:CATA:1,2015-04-01T21:00:00Z,30.3085,-88.1395,79.71,1111122 
DISL,ioos:station:DISL:CATA:1,2015-04-01T21:30:00Z,30.3085,-88.1395,79.68,1111122 
DISL,ioos:station:DISL:CATA:1,2015-04-01T22:00:00Z,30.3085,-88.1395,76.42,1111122 
DISL,ioos:station:DISL:CATA:1,2015-04-01T22:30:00Z,30.3085,-88.1395,79.99,1111122 
DISL,ioos:station:DISL:CATA:1,2015-04-01T23:00:00Z,30.3085,-88.1395,86.8,1111122 
DISL,ioos:station:DISL:CATA:1,2015-04-01T23:30:00Z,30.3085,-88.1395,85.3,1111122 
DISL,ioos:station:DISL:CATA:1,2015-04-02T00:00:00Z,30.3085,-88.1395,89.6,1111122 
DISL,ioos:station:DISL:CATA:1,2015-04-02T00:30:00Z,30.3085,-88.1395,90.8,1111122 
DISL,ioos:station:DISL:CATA:1,2015-04-02T01:00:00Z,30.3085,-88.1395,93.6,1111122 
DISL,ioos:station:DISL:CATA:1,2015-04-02T01:30:00Z,30.3085,-88.1395,94.0,1111122 
DISL,ioos:station:DISL:CATA:1,2015-04-02T02:00:00Z,30.3085,-88.1395,93.9,1111122 
DISL,ioos:station:DISL:CATA:1,2015-04-02T02:30:00Z,30.3085,-88.1395,92.4,1111122 
DISL,ioos:station:DISL:CATA:1,2015-04-02T03:00:00Z,30.3085,-88.1395,96.2,1111122 
DISL,ioos:station:DISL:CATA:1,2015-04-02T03:30:00Z,30.3085,-88.1395,100.0,1111122 
DISL,ioos:station:DISL:CATA:1,2015-04-02T04:00:00Z,30.3085,-88.1395,100.0,1111122 
DISL,ioos:station:DISL:CATA:1,2015-04-02T04:30:00Z,30.3085,-88.1395,100.0,1111122 
DISL,ioos:station:DISL:CATA:1,2015-04-02T05:00:00Z,30.3085,-88.1395,100.0,1111122 
DISL,ioos:station:DISL:CATA:1,2015-04-02T05:30:00Z,30.3085,-88.1395,100.0,1111122 
DISL,ioos:station:DISL:CATA:1,2015-04-02T06:30:00Z,30.3085,-88.1395,100.0,1111122 
DISL,ioos:station:DISL:CATA:1,2015-04-02T07:00:00Z,30.3085,-88.1395,100.0,1111122 
DISL,ioos:station:DISL:CATA:1,2015-04-02T07:30:00Z,30.3085,-88.1395,100.0,1111122 
DISL,ioos:station:DISL:CATA:1,2015-04-02T08:00:00Z,30.3085,-88.1395,100.0,1111122 
DISL,ioos:station:DISL:CATA:1,2015-04-02T08:30:00Z,30.3085,-88.1395,100.0,1111122 
DISL,ioos:station:DISL:CATA:1,2015-04-02T09:00:00Z,30.3085,-88.1395,100.0,1111122 
DISL,ioos:station:DISL:CATA:1,2015-04-02T09:30:00Z,30.3085,-88.1395,100.0,1111122 
DISL,ioos:station:DISL:CATA:1,2015-04-02T10:00:00Z,30.3085,-88.1395,100.0,1111122 
DISL,ioos:station:DISL:CATA:1,2015-04-02T10:30:00Z,30.3085,-88.1395,100.0,1111122 
DISL,ioos:station:DISL:CATA:1,2015-04-02T11:00:00Z,30.3085,-88.1395,100.0,1111122 
DISL,ioos:station:DISL:CATA:1,2015-04-02T11:30:00Z,30.3085,-88.1395,100.0,1111122 
DISL,ioos:station:DISL:CATA:1,2015-04-02T12:00:00Z,30.3085,-88.1395,100.0,1111122 
DISL,ioos:station:DISL:CATA:1,2015-04-02T12:30:00Z,30.3085,-88.1395,100.0,1111122 
DISL,ioos:station:DISL:CATA:1,2015-04-02T13:00:00Z,30.3085,-88.1395,100.0,1111122 
DISL,ioos:station:DISL:CATA:1,2015-04-02T13:30:00Z,30.3085,-88.1395,100.0,1111122 
DISL,ioos:station:DISL:CATA:1,2015-04-02T14:00:00Z,30.3085,-88.1395,98.3,1111122 
DISL,ioos:station:DISL:CATA:1,2015-04-02T14:30:00Z,30.3085,-88.1395,95.7,1111122 
DISL,ioos:station:DISL:CATA:1,2015-04-02T15:00:00Z,30.3085,-88.1395,95.7,1111122 
DISL,ioos:station:DISL:CATA:1,2015-04-02T15:30:00Z,30.3085,-88.1395,93.4,1111122 
DISL,ioos:station:DISL:CATA:1,2015-04-02T16:00:00Z,30.3085,-88.1395,93.0,1111122 
DISL,ioos:station:DISL:CATA:1,2015-04-02T16:30:00Z,30.3085,-88.1395,91.5,1111122 
DISL,ioos:station:DISL:CATA:1,2015-04-02T17:00:00Z,30.3085,-88.1395,93.3,1111122 
DISL,ioos:station:DISL:CATA:1,2015-04-02T17:30:00Z,30.3085,-88.1395,91.6,1111122 
DISL,ioos:station:DISL:CATA:1,2015-04-02T18:00:00Z,30.3085,-88.1395,87.0,1111122 
DISL,ioos:station:DISL:CATA:1,2015-04-02T18:30:00Z,30.3085,-88.1395,83.7,1111122 
DISL,ioos:station:DISL:CATA:1,2015-04-02T19:00:00Z,30.3085,-88.1395,85.4,1111122 
DISL,ioos:station:DISL:CATA:1,2015-04-02T19:30:00Z,30.3085,-88.1395,84.5,1111122 
DISL,ioos:station:DISL:CATA:1,2015-04-02T20:00:00Z,30.3085,-88.1395,83.2,1111122 
DISL,ioos:station:DISL:CATA:1,2015-04-02T20:30:00Z,30.3085,-88.1395,82.2,1111122 
DISL,ioos:station:DISL:CATA:1,2015-04-02T21:00:00Z,30.3085,-88.1395,82.4,1111122 
DISL,ioos:station:DISL:CATA:1,2015-04-02T21:30:00Z,30.3085,-88.1395,80.4,1111122 
DISL,ioos:station:DISL:CATA:1,2015-04-02T22:00:00Z,30.3085,-88.1395,82.0,1111122 
DISL,ioos:station:DISL:CATA:1,2015-04-02T22:30:00Z,30.3085,-88.1395,79.43,1111122 
DISL,ioos:station:DISL:CATA:1,2015-04-02T23:00:00Z,30.3085,-88.1395,81.9,1111122 
DISL,ioos:station:DISL:CATA:1,2015-04-02T23:30:00Z,30.3085,-88.1395,81.7,1111122 
DISL,ioos:station:DISL:CATA:1,2015-04-03T00:00:00Z,30.3085,-88.1395,87.7,1111122 
DISL,ioos:station:DISL:CATA:1,2015-04-03T00:30:00Z,30.3085,-88.1395,93.7,1111122 
DISL,ioos:station:DISL:CATA:1,2015-04-03T01:00:00Z,30.3085,-88.1395,94.6,1111122 
DISL,ioos:station:DISL:CATA:1,2015-04-03T01:30:00Z,30.3085,-88.1395,96.6,1111122 
DISL,ioos:station:DISL:CATA:1,2015-04-03T02:00:00Z,30.3085,-88.1395,98.1,1111122 
DISL,ioos:station:DISL:CATA:1,2015-04-03T02:30:00Z,30.3085,-88.1395,100.0,1111122 
DISL,ioos:station:DISL:CATA:1,2015-04-03T03:00:00Z,30.3085,-88.1395,100.0,1111122 
DISL,ioos:station:DISL:CATA:1,2015-04-03T03:30:00Z,30.3085,-88.1395,100.0,1111122 
DISL,ioos:station:DISL:CATA:1,2015-04-03T04:00:00Z,30.3085,-88.1395,100.0,1111122 
DISL,ioos:station:DISL:CATA:1,2015-04-03T04:30:00Z,30.3085,-88.1395,100.0,1111122 
DISL,ioos:station:DISL:CATA:1,2015-04-03T05:00:00Z,30.3085,-88.1395,100.0,1111122 
DISL,ioos:station:DISL:CATA:1,2015-04-03T05:30:00Z,30.3085,-88.1395,100.0,1111122 
DISL,ioos:station:DISL:CATA:1,2015-04-03T06:30:00Z,30.3085,-88.1395,100.0,1111122 
DISL,ioos:station:DISL:CATA:1,2015-04-03T07:00:00Z,30.3085,-88.1395,100.0,1111122 
DISL,ioos:station:DISL:CATA:1,2015-04-03T07:30:00Z,30.3085,-88.1395,100.0,1111122 
DISL,ioos:station:DISL:CATA:1,2015-04-03T08:00:00Z,30.3085,-88.1395,100.0,1111122 
DISL,ioos:station:DISL:CATA:1,2015-04-03T08:30:00Z,30.3085,-88.1395,100.0,1111122 
DISL,ioos:station:DISL:CATA:1,2015-04-03T09:00:00Z,30.3085,-88.1395,99.5,1111122 
DISL,ioos:station:DISL:CATA:1,2015-04-03T09:30:00Z,30.3085,-88.1395,97.6,1111122 
DISL,ioos:station:DISL:CATA:1,2015-04-03T10:00:00Z,30.3085,-88.1395,97.6,1111122 
DISL,ioos:station:DISL:CATA:1,2015-04-03T10:30:00Z,30.3085,-88.1395,95.9,1111122 
DISL,ioos:station:DISL:CATA:1,2015-04-03T11:00:00Z,30.3085,-88.1395,97.7,1111122 
DISL,ioos:station:DISL:CATA:1,2015-04-03T11:30:00Z,30.3085,-88.1395,99.9,1111122 
DISL,ioos:station:DISL:CATA:1,2015-04-03T12:00:00Z,30.3085,-88.1395,100.0,1111122 
DISL,ioos:station:DISL:CATA:1,2015-04-03T12:30:00Z,30.3085,-88.1395,97.0,1111122 
DISL,ioos:station:DISL:CATA:1,2015-04-03T13:00:00Z,30.3085,-88.1395,94.4,1111122 
DISL,ioos:station:DISL:CATA:1,2015-04-03T13:30:00Z,30.3085,-88.1395,91.8,1111122 
DISL,ioos:station:DISL:CATA:1,2015-04-03T14:00:00Z,30.3085,-88.1395,89.9,1111122 
DISL,ioos:station:DISL:CATA:1,2015-04-03T14:30:00Z,30.3085,-88.1395,90.0,1111122 
DISL,ioos:station:DISL:CATA:1,2015-04-03T15:00:00Z,30.3085,-88.1395,91.1,1111122 
DISL,ioos:station:DISL:CATA:1,2015-04-03T15:30:00Z,30.3085,-88.1395,89.7,1111122 
DISL,ioos:station:DISL:CATA:1,2015-04-03T16:00:00Z,30.3085,-88.1395,90.6,1111122 
DISL,ioos:station:DISL:CATA:1,2015-04-03T16:30:00Z,30.3085,-88.1395,89.4,1111122 
DISL,ioos:station:DISL:CATA:1,2015-04-03T17:00:00Z,30.3085,-88.1395,87.4,1111122 
DISL,ioos:station:DISL:CATA:1,2015-04-03T17:30:00Z,30.3085,-88.1395,89.1,1111122 
DISL,ioos:station:DISL:CATA:1,2015-04-03T18:00:00Z,30.3085,-88.1395,88.7,1111122 
DISL,ioos:station:DISL:CATA:1,2015-04-03T18:30:00Z,30.3085,-88.1395,86.7,1111122 
DISL,ioos:station:DISL:CATA:1,2015-04-03T19:00:00Z,30.3085,-88.1395,89.1,1111122 
DISL,ioos:station:DISL:CATA:1,2015-04-03T19:30:00Z,30.3085,-88.1395,87.6,1111122 
DISL,ioos:station:DISL:CATA:1,2015-04-03T20:00:00Z,30.3085,-88.1395,85.9,1111122 
DISL,ioos:station:DISL:CATA:1,2015-04-03T20:30:00Z,30.3085,-88.1395,85.0,1111122 
DISL,ioos:station:DISL:CATA:1,2015-04-03T21:00:00Z,30.3085,-88.1395,86.2,1111122 
DISL,ioos:station:DISL:CATA:1,2015-04-03T21:30:00Z,30.3085,-88.1395,85.0,1111122 
DISL,ioos:station:DISL:CATA:1,2015-04-03T22:00:00Z,30.3085,-88.1395,82.7,1111122 
DISL,ioos:station:DISL:CATA:1,2015-04-03T22:30:00Z,30.3085,-88.1395,87.0,1111122 
DISL,ioos:station:DISL:CATA:1,2015-04-03T23:00:00Z,30.3085,-88.1395,87.7,1111122 
DISL,ioos:station:DISL:CATA:1,2015-04-03T23:30:00Z,30.3085,-88.1395,88.1,1111122 
DISL,ioos:station:DISL:CATA:1,2015-04-04T00:00:00Z,30.3085,-88.1395,90.3,1111122 
DISL,ioos:station:DISL:CATA:1,2015-04-04T00:30:00Z,30.3085,-88.1395,93.9,1111122 
DISL,ioos:station:DISL:CATA:1,2015-04-04T01:00:00Z,30.3085,-88.1395,96.3,1111122 
DISL,ioos:station:DISL:CATA:1,2015-04-04T01:30:00Z,30.3085,-88.1395,96.0,1111122 
DISL,ioos:station:DISL:CATA:1,2015-04-04T02:00:00Z,30.3085,-88.1395,99.7,1111122 
DISL,ioos:station:DISL:CATA:1,2015-04-04T02:30:00Z,30.3085,-88.1395,100.0,1111122 
DISL,ioos:station:DISL:CATA:1,2015-04-04T03:00:00Z,30.3085,-88.1395,100.0,1111122 
DISL,ioos:station:DISL:CATA:1,2015-04-04T03:30:00Z,30.3085,-88.1395,100.0,1111122 
DISL,ioos:station:DISL:CATA:1,2015-04-04T04:00:00Z,30.3085,-88.1395,100.0,1111122 
DISL,ioos:station:DISL:CATA:1,2015-04-04T04:30:00Z,30.3085,-88.1395,100.0,1111122 
DISL,ioos:station:DISL:CATA:1,2015-04-04T05:00:00Z,30.3085,-88.1395,100.0,1111122 
DISL,ioos:station:DISL:CATA:1,2015-04-04T05:30:00Z,30.3085,-88.1395,100.0,1111122 
DISL,ioos:station:DISL:CATA:1,2015-04-04T06:30:00Z,30.3085,-88.1395,100.0,1111122 
DISL,ioos:station:DISL:CATA:1,2015-04-04T07:00:00Z,30.3085,-88.1395,100.0,1111122 
DISL,ioos:station:DISL:CATA:1,2015-04-04T07:30:00Z,30.3085,-88.1395,100.0,1111122 
DISL,ioos:station:DISL:CATA:1,2015-04-04T08:00:00Z,30.3085,-88.1395,100.0,1111122 
DISL,ioos:station:DISL:CATA:1,2015-04-04T10:00:00Z,30.3085,-88.1395,100.0,1111122 
DISL,ioos:station:DISL:CATA:1,2015-04-04T10:30:00Z,30.3085,-88.1395,97.4,1111122 
DISL,ioos:station:DISL:CATA:1,2015-04-04T11:00:00Z,30.3085,-88.1395,100.0,1111122 
DISL,ioos:station:DISL:CATA:1,2015-04-04T11:30:00Z,30.3085,-88.1395,94.5,1111122 
DISL,ioos:station:DISL:CATA:1,2015-04-04T12:00:00Z,30.3085,-88.1395,97.7,1111122 
DISL,ioos:station:DISL:CATA:1,2015-04-04T12:30:00Z,30.3085,-88.1395,90.1,1111122 
DISL,ioos:station:DISL:CATA:1,2015-04-04T13:00:00Z,30.3085,-88.1395,90.1,1111122 
DISL,ioos:station:DISL:CATA:1,2015-04-04T13:30:00Z,30.3085,-88.1395,89.5,1111122 
DISL,ioos:station:DISL:CATA:1,2015-04-04T14:00:00Z,30.3085,-88.1395,88.0,1111122 
DISL,ioos:station:DISL:CATA:1,2015-04-04T14:30:00Z,30.3085,-88.1395,85.8,1111122 
DISL,ioos:station:DISL:CATA:1,2015-04-04T15:00:00Z,30.3085,-88.1395,85.9,1111122 
DISL,ioos:station:DISL:CATA:1,2015-04-04T15:30:00Z,30.3085,-88.1395,88.5,1111122 
DISL,ioos:station:DISL:CATA:1,2015-04-04T16:00:00Z,30.3085,-88.1395,93.8,1111122 
DISL,ioos:station:DISL:CATA:1,2015-04-04T16:30:00Z,30.3085,-88.1395,100.0,1111122 
DISL,ioos:station:DISL:CATA:1,2015-04-04T17:00:00Z,30.3085,-88.1395,90.0,1111122 
DISL,ioos:station:DISL:CATA:1,2015-04-04T17:30:00Z,30.3085,-88.1395,82.7,1111122 
DISL,ioos:station:DISL:CATA:1,2015-04-04T18:00:00Z,30.3085,-88.1395,67.19,1111122 
DISL,ioos:station:DISL:CATA:1,2015-04-04T18:30:00Z,30.3085,-88.1395,61.35,1111122 
DISL,ioos:station:DISL:CATA:1,2015-04-04T19:00:00Z,30.3085,-88.1395,60.08,1111122 
DISL,ioos:station:DISL:CATA:1,2015-04-04T19:30:00Z,30.3085,-88.1395,52.47,1111122 
DISL,ioos:station:DISL:CATA:1,2015-04-04T20:00:00Z,30.3085,-88.1395,42.67,1111122 
DISL,ioos:station:DISL:CATA:1,2015-04-04T20:30:00Z,30.3085,-88.1395,41.84,1111122 
DISL,ioos:station:DISL:CATA:1,2015-04-04T21:00:00Z,30.3085,-88.1395,35.09,1111122 
DISL,ioos:station:DISL:CATA:1,2015-04-04T21:30:00Z,30.3085,-88.1395,38.62,1111122 
DISL,ioos:station:DISL:CATA:1,2015-04-04T22:00:00Z,30.3085,-88.1395,33.14,1111122 
DISL,ioos:station:DISL:CATA:1,2015-04-04T22:30:00Z,30.3085,-88.1395,35.37,1111122 
DISL,ioos:station:DISL:CATA:1,2015-04-04T23:00:00Z,30.3085,-88.1395,33.58,1111122 
DISL,ioos:station:DISL:CATA:1,2015-04-04T23:30:00Z,30.3085,-88.1395,36.46,1111122 
DISL,ioos:station:DISL:CATA:1,2015-04-05T00:00:00Z,30.3085,-88.1395,38.01,1111122 
DISL,ioos:station:DISL:CATA:1,2015-04-05T00:30:00Z,30.3085,-88.1395,40.99,1111122 
DISL,ioos:station:DISL:CATA:1,2015-04-05T01:00:00Z,30.3085,-88.1395,37.97,1111122 
DISL,ioos:station:DISL:CATA:1,2015-04-05T01:30:00Z,30.3085,-88.1395,36.16,1111122 
DISL,ioos:station:DISL:CATA:1,2015-04-05T02:00:00Z,30.3085,-88.1395,37.97,1111122 
DISL,ioos:station:DISL:CATA:1,2015-04-05T02:30:00Z,30.3085,-88.1395,37.97,1111122 
DISL,ioos:station:DISL:CATA:1,2015-04-05T03:00:00Z,30.3085,-88.1395,38.21,1111122 
DISL,ioos:station:DISL:CATA:1,2015-04-05T03:30:00Z,30.3085,-88.1395,42.08,1111122 
DISL,ioos:station:DISL:CATA:1,2015-04-05T04:00:00Z,30.3085,-88.1395,39.24,1111122 
DISL,ioos:station:DISL:CATA:1,2015-04-05T04:30:00Z,30.3085,-88.1395,46.38,1111122 
DISL,ioos:station:DISL:CATA:1,2015-04-05T05:00:00Z,30.3085,-88.1395,47.65,1111122 
DISL,ioos:station:DISL:CATA:1,2015-04-05T05:30:00Z,30.3085,-88.1395,43.91,1111122 
DISL,ioos:station:DISL:CATA:1,2015-04-05T06:30:00Z,30.3085,-88.1395,47.34,1111122 
DISL,ioos:station:DISL:CATA:1,2015-04-05T07:00:00Z,30.3085,-88.1395,46.9,1111122 
DISL,ioos:station:DISL:CATA:1,2015-04-05T07:30:00Z,30.3085,-88.1395,44.84,1111122 
DISL,ioos:station:DISL:CATA:1,2015-04-05T08:00:00Z,30.3085,-88.1395,44.19,1111122 
DISL,ioos:station:DISL:CATA:1,2015-04-05T08:30:00Z,30.3085,-88.1395,47.82,1111122 
DISL,ioos:station:DISL:CATA:1,2015-04-05T09:00:00Z,30.3085,-88.1395,55.85,1111122 
DISL,ioos:station:DISL:CATA:1,2015-04-05T09:30:00Z,30.3085,-88.1395,51.25,1111122 
DISL,ioos:station:DISL:CATA:1,2015-04-05T10:00:00Z,30.3085,-88.1395,53.07,1111122 
DISL,ioos:station:DISL:CATA:1,2015-04-05T10:30:00Z,30.3085,-88.1395,47.69,1111122 
DISL,ioos:station:DISL:CATA:1,2015-04-05T11:00:00Z,30.3085,-88.1395,49.02,1111122 
DISL,ioos:station:DISL:CATA:1,2015-04-05T11:30:00Z,30.3085,-88.1395,50.84,1111122 
DISL,ioos:station:DISL:CATA:1,2015-04-05T12:00:00Z,30.3085,-88.1395,52.14,1111122 
DISL,ioos:station:DISL:CATA:1,2015-04-05T12:30:00Z,30.3085,-88.1395,54.85,1111122 
DISL,ioos:station:DISL:CATA:1,2015-04-05T13:00:00Z,30.3085,-88.1395,56.74,1111122 
DISL,ioos:station:DISL:CATA:1,2015-04-05T13:30:00Z,30.3085,-88.1395,54.03,1111122 
DISL,ioos:station:DISL:CATA:1,2015-04-05T14:00:00Z,30.3085,-88.1395,59.07,1111122 
DISL,ioos:station:DISL:CATA:1,2015-04-05T14:30:00Z,30.3085,-88.1395,58.42,1111122 
DISL,ioos:station:DISL:CATA:1,2015-04-05T15:00:00Z,30.3085,-88.1395,55.32,1111122 
DISL,ioos:station:DISL:CATA:1,2015-04-05T15:30:00Z,30.3085,-88.1395,54.73,1111122 
DISL,ioos:station:DISL:CATA:1,2015-04-05T16:00:00Z,30.3085,-88.1395,61.38,1111122 
DISL,ioos:station:DISL:CATA:1,2015-04-05T16:30:00Z,30.3085,-88.1395,64.67,1111122 
DISL,ioos:station:DISL:CATA:1,2015-04-05T17:00:00Z,30.3085,-88.1395,72.72,1111122 
DISL,ioos:station:DISL:CATA:1,2015-04-05T17:30:00Z,30.3085,-88.1395,77.11,1111122 
DISL,ioos:station:DISL:CATA:1,2015-04-05T18:00:00Z,30.3085,-88.1395,79.2,1111122 
DISL,ioos:station:DISL:CATA:1,2015-04-05T18:30:00Z,30.3085,-88.1395,77.07,1111122 
DISL,ioos:station:DISL:CATA:1,2015-04-05T19:00:00Z,30.3085,-88.1395,81.8,1111122 
DISL,ioos:station:DISL:CATA:1,2015-04-05T19:30:00Z,30.3085,-88.1395,82.4,1111122 
DISL,ioos:station:DISL:CATA:1,2015-04-05T20:00:00Z,30.3085,-88.1395,83.3,1111122 
DISL,ioos:station:DISL:CATA:1,2015-04-05T20:30:00Z,30.3085,-88.1395,86.3,1111122 
DISL,ioos:station:DISL:CATA:1,2015-04-05T21:00:00Z,30.3085,-88.1395,88.8,1111122 
DISL,ioos:station:DISL:CATA:1,2015-04-05T21:30:00Z,30.3085,-88.1395,89.8,1111122 
DISL,ioos:station:DISL:CATA:1,2015-04-05T22:00:00Z,30.3085,-88.1395,89.9,1111122 
DISL,ioos:station:DISL:CATA:1,2015-04-05T22:30:00Z,30.3085,-88.1395,91.1,1111122 
DISL,ioos:station:DISL:CATA:1,2015-04-05T23:00:00Z,30.3085,-88.1395,92.5,1111122 
DISL,ioos:station:DISL:CATA:1,2015-04-05T23:30:00Z,30.3085,-88.1395,93.1,1111122 
DISL,ioos:station:DISL:CATA:1,2015-04-06T00:00:00Z,30.3085,-88.1395,92.6,1111122 
DISL,ioos:station:DISL:CATA:1,2015-04-06T00:30:00Z,30.3085,-88.1395,92.6,1111122 
DISL,ioos:station:DISL:CATA:1,2015-04-06T01:00:00Z,30.3085,-88.1395,91.2,1111122 
DISL,ioos:station:DISL:CATA:1,2015-04-06T01:30:00Z,30.3085,-88.1395,89.8,1111122 
DISL,ioos:station:DISL:CATA:1,2015-04-06T02:00:00Z,30.3085,-88.1395,94.1,1111122 
DISL,ioos:station:DISL:CATA:1,2015-04-06T02:30:00Z,30.3085,-88.1395,88.4,1111122 
DISL,ioos:station:DISL:CATA:1,2015-04-06T03:00:00Z,30.3085,-88.1395,90.1,1111122 
DISL,ioos:station:DISL:CATA:1,2015-04-06T03:30:00Z,30.3085,-88.1395,95.1,1111122 
DISL,ioos:station:DISL:CATA:1,2015-04-06T04:00:00Z,30.3085,-88.1395,97.0,1111122 
DISL,ioos:station:DISL:CATA:1,2015-04-06T04:30:00Z,30.3085,-88.1395,100.0,1111122 
DISL,ioos:station:DISL:CATA:1,2015-04-06T05:00:00Z,30.3085,-88.1395,100.0,1111122 
DISL,ioos:station:DISL:CATA:1,2015-04-06T05:30:00Z,30.3085,-88.1395,100.0,1111122 
DISL,ioos:station:DISL:CATA:1,2015-04-06T15:30:00Z,30.3085,-88.1395,100.0,1111122 
DISL,ioos:station:DISL:CATA:1,2015-04-06T16:00:00Z,30.3085,-88.1395,100.0,1111122 
DISL,ioos:station:DISL:CATA:1,2015-04-06T16:30:00Z,30.3085,-88.1395,100.0,1111122 
DISL,ioos:station:DISL:CATA:1,2015-04-06T17:00:00Z,30.3085,-88.1395,100.0,1111122 
DISL,ioos:station:DISL:CATA:1,2015-04-06T17:30:00Z,30.3085,-88.1395,100.0,1111122 
DISL,ioos:station:DISL:CATA:1,2015-04-06T18:00:00Z,30.3085,-88.1395,100.0,1111122 
DISL,ioos:station:DISL:CATA:1,2015-04-06T18:30:00Z,30.3085,-88.1395,100.0,1111122 
DISL,ioos:station:DISL:CATA:1,2015-04-06T19:00:00Z,30.3085,-88.1395,100.0,1111122 
DISL,ioos:station:DISL:CATA:1,2015-04-06T19:30:00Z,30.3085,-88.1395,100.0,1111122 
DISL,ioos:station:DISL:CATA:1,2015-04-06T20:00:00Z,30.3085,-88.1395,100.0,1111122 
DISL,ioos:station:DISL:CATA:1,2015-04-06T20:30:00Z,30.3085,-88.1395,100.0,1111122 
DISL,ioos:station:DISL:CATA:1,2015-04-06T21:00:00Z,30.3085,-88.1395,100.0,1111122 
DISL,ioos:station:DISL:CATA:1,2015-04-06T21:30:00Z,30.3085,-88.1395,100.0,1111122 
DISL,ioos:station:DISL:CATA:1,2015-04-07T18:00:00Z,30.3085,-88.1395,100.0,1111122 
DISL,ioos:station:DISL:CATA:1,2015-04-07T18:30:00Z,30.3085,-88.1395,100.0,1111122 
DISL,ioos:station:DISL:CATA:1,2015-04-07T19:00:00Z,30.3085,-88.1395,100.0,1111122 
DISL,ioos:station:DISL:CATA:1,2015-04-07T19:30:00Z,30.3085,-88.1395,100.0,1111122 
DISL,ioos:station:DISL:CATA:1,2015-04-07T20:00:00Z,30.3085,-88.1395,100.0,1111122 
DISL,ioos:station:DISL:CATA:1,2015-04-07T20:30:00Z,30.3085,-88.1395,100.0,1111122 
DISL,ioos:station:DISL:CATA:1,2015-04-07T21:00:00Z,30.3085,-88.1395,100.0,1111122 
DISL,ioos:station:DISL:CATA:1,2015-04-07T21:30:00Z,30.3085,-88.1395,100.0,1111122 
DISL,ioos:station:DISL:CATA:1,2015-04-07T22:00:00Z,30.3085,-88.1395,100.0,1111122 
DISL,ioos:station:DISL:CATA:1,2015-04-07T22:30:00Z,30.3085,-88.1395,100.0,1111122 
DISL,ioos:station:DISL:CATA:1,2015-04-07T23:00:00Z,30.3085,-88.1395,100.0,1111122 
DISL,ioos:station:DISL:CATA:1,2015-04-07T23:30:00Z,30.3085,-88.1395,100.0,1111122 
DISL,ioos:station:DISL:CATA:1,2015-04-08T19:30:00Z,30.3085,-88.1395,100.0,1111122 
DISL,ioos:station:DISL:CATA:1,2015-04-08T20:00:00Z,30.3085,-88.1395,100.0,1111122 
DISL,ioos:station:DISL:CATA:1,2015-04-08T20:30:00Z,30.3085,-88.1395,100.0,1111122 
DISL,ioos:station:DISL:CATA:1,2015-04-08T21:00:00Z,30.3085,-88.1395,100.0,1111122 
DISL,ioos:station:DISL:CATA:1,2015-04-08T21:30:00Z,30.3085,-88.1395,100.0,1111122 
DISL,ioos:station:DISL:CATA:1,2015-04-08T22:00:00Z,30.3085,-88.1395,97.1,1111122 
DISL,ioos:station:DISL:CATA:1,2015-04-08T22:30:00Z,30.3085,-88.1395,90.0,1111122 
DISL,ioos:station:DISL:CATA:1,2015-04-08T23:00:00Z,30.3085,-88.1395,90.0,1111122 
DISL,ioos:station:DISL:CATA:1,2015-04-08T23:30:00Z,30.3085,-88.1395,92.2,1111122 
DISL,ioos:station:DISL:CATA:1,2015-04-09T00:00:00Z,30.3085,-88.1395,100.0,1111122 
DISL,ioos:station:DISL:CATA:1,2015-04-09T13:30:00Z,30.3085,-88.1395,100.0,1111122 
DISL,ioos:station:DISL:CATA:1,2015-04-09T14:00:00Z,30.3085,-88.1395,100.0,1111122 
DISL,ioos:station:DISL:CATA:1,2015-04-09T14:30:00Z,30.3085,-88.1395,100.0,1111122 
DISL,ioos:station:DISL:CATA:1,2015-04-09T17:00:00Z,30.3085,-88.1395,80.3,1111122 
DISL,ioos:station:DISL:CATA:1,2015-04-09T17:30:00Z,30.3085,-88.1395,79.32,1111122 
DISL,ioos:station:DISL:CATA:1,2015-04-09T18:00:00Z,30.3085,-88.1395,79.52,1111122 
DISL,ioos:station:DISL:CATA:1,2015-04-09T18:30:00Z,30.3085,-88.1395,79.38,1111122 
DISL,ioos:station:DISL:CATA:1,2015-04-09T19:00:00Z,30.3085,-88.1395,80.1,1111122 
DISL,ioos:station:DISL:CATA:1,2015-04-09T19:30:00Z,30.3085,-88.1395,78.02,1111122 
DISL,ioos:station:DISL:CATA:1,2015-04-09T20:00:00Z,30.3085,-88.1395,77.98,1111122 
DISL,ioos:station:DISL:CATA:1,2015-04-09T20:30:00Z,30.3085,-88.1395,78.39,1111122 
DISL,ioos:station:DISL:CATA:1,2015-04-09T21:00:00Z,30.3085,-88.1395,73.63,1111122 
DISL,ioos:station:DISL:CATA:1,2015-04-09T21:30:00Z,30.3085,-88.1395,74.66,1111122 
DISL,ioos:station:DISL:CATA:1,2015-04-09T22:00:00Z,30.3085,-88.1395,77.3,1111122 
DISL,ioos:station:DISL:CATA:1,2015-04-09T22:30:00Z,30.3085,-88.1395,80.2,1111122 
DISL,ioos:station:DISL:CATA:1,2015-04-09T23:00:00Z,30.3085,-88.1395,81.0,1111122 
DISL,ioos:station:DISL:CATA:1,2015-04-09T23:30:00Z,30.3085,-88.1395,82.5,1111122 